Retour au catalogue

FENGYUN 1C DEB

ActifPO
NORAD 32137·DEBRIS·🇨🇳 China

Lancé May 10, 1999 depuis Taiyuan Satellite Launch Center

Loading…

Prochains Passages (prochaines 24 heures)

TLE

FraisSource: Space-Track

Époque: Sep 12, 2026, 04:28 UTC

1 32137U 99025CSF 26255.18612931  .00006999  00000-0  60986-3 0  9997
2 32137  98.4757  44.0048 0170886 233.1149 125.4299 14.86631854707878

Suivez FENGYUN 1C DEB en temps réel avec AllMySat

Download on the App Store